[[{"header":{"parameterUnit":"m.s-1","parameterCategory":1,"la1":30.2991,"la2":30.254,"lo1":-89.0895,"lo2":-89.0444,"dy":0.0017,"dx":0.0017,"nx":28,"ny":28,"refTime":"2024-12-16T09:00:00:Z","depth":0,"parameterNumber":2,"parameterNumberName":"U-component_of_WINDS"},"data":[0,0,0,0,0,0,0,0,0,0,0,0,0,0,0,0,0,0,0,0,0,0,0,0,0,0,0,0,0,0,0,0,0,0,0,0,0,0,0,0,0,0,0,0,0,0,0,0,0,0,0,0,0,0,0,0,0,0,-1.1967,-1.1967,0,-1.1964,-1.1964,-1.1964,-1.1924,-1.1923,-1.1922,-1.1921,-1.1919,-1.1919,-1.192,0,0,0,0,0,0,0,0,0,0,0,0,0,-1.1939,-1.1939,-1.1967,-1.1967,-1.1967,-1.1964,-1.1964,-1.1964,-1.1924,-1.1923,-1.1921,-1.192,-1.1918,-1.1919,-1.192,0,0,0,0,0,0,0,0,0,0,0,0,0,-1.1945,-1.194,-1.1967,-1.1947,-1.1945,-1.1964,-1.1964,-1.1964,-1.1924,-1.1923,-1.1921,-1.192,-1.1918,-1.1919,-1.1921,-1.196,0,0,-1.1925,-1.1925,0,0,0,0,0,0,0,0,-1.1945,-1.1946,-1.195,-1.1948,-1.1946,-1.1943,-1.1953,-1.1963,-1.1925,-1.1932,-1.1921,-1.1919,-1.1928,-1.1928,-1.1931,-1.196,-1.196,-1.1925,-1.1926,-1.1926,-1.1927,0,0,0,0,0,0,0,-1.1944,-1.1946,-1.1966,-1.195,-1.1947,-1.1938,-1.1937,-1.1955,-1.1939,-1.1931,-1.1928,-1.1928,-1.1927,-1.193,-1.1931,-1.196,-1.1925,-1.1926,-1.1927,-1.1927,-1.2021,-1.2022,0,0,0,0,0,0,-1.1947,-1.1946,-1.1966,-1.1966,-1.1941,-1.194,-1.1939,-1.1945,-1.1938,-1.1936,-1.193,-1.1927,-1.1928,-1.1929,-1.1931,-1.1976,-1.1926,-1.1927,-1.1928,-1.2019,-1.2021,-1.2023,0,0,0,0,0,0,-1.1946,-1.1949,-1.1966,-1.1955,-1.1957,-1.1942,-1.1949,-1.1946,-1.1949,-1.1937,-1.1934,-1.1936,-1.1927,-1.1929,-1.1953,-1.1975,-1.1928,-1.1929,-1.2017,-1.2019,-1.2022,-1.2067,0,0,0,0,0,0,-1.1946,-1.1949,-1.1963,-1.1956,-1.1957,-1.1988,-1.1951,-1.1947,-1.1952,-1.1947,-1.1942,-1.194,-1.1926,-1.1951,-1.1954,-1.1976,-1.193,-1.2015,-1.2018,-1.2021,-1.2064,-1.2071,-1.2077,0,0,0,0,0,-1.1945,-1.1976,-1.1964,-1.1967,-1.1975,-1.1989,-1.199,-1.1973,-1.1954,-1.1968,-1.1961,-1.194,-1.1973,-1.1954,-1.1957,-1.198,-1.2013,-1.2017,-1.2021,-1.2061,-1.207,-1.2077,0,0,0,0,0,0,-1.1987,-1.1975,-1.1961,-1.1991,-1.1992,-1.1983,-1.2,-1.1983,-1.199,-1.1985,-1.1965,-1.1964,-1.1991,-1.1988,-1.1967,-1.2018,-1.1989,-1.1994,-1.2019,-1.2027,-1.2034,-1.2034,-1.1931,0,0,0,0,0,-1.2,-1.2012,-1.2001,-1.2029,-1.203,-1.2015,-1.2021,-1.2008,-1.2008,-1.2008,-1.2002,-1.2002,-1.2013,-1.202,-1.2029,-1.2063,-1.2062,-1.2081,-1.2088,-1.2093,-1.2097,-1.2116,-1.2124,-1.2035,-1.2035,-1.2035,0,0,-1.2026,-1.2021,-1.203,-1.2037,-1.2036,-1.205,-1.2015,-1.2031,-1.2041,-1.201,-1.2032,-1.2028,-1.2028,-1.2057,-1.207,-1.2056,-1.2122,-1.2098,-1.2103,-1.2104,-1.2121,-1.2129,-1.2136,-1.2038,-1.2037,-1.2037,0,0,-1.2081,-1.2079,-1.2101,-1.2101,-1.21,-1.209,-1.2096,-1.2089,-1.2085,-1.2107,-1.2084,-1.2096,-1.2115,-1.2115,-1.2118,-1.2175,-1.2156,-1.2178,-1.2213,-1.2232,-1.2239,-1.2245,-1.2265,-1.2272,-1.2182,-1.2183,-1.2183,0,-1.2114,-1.2134,-1.2115,-1.2133,-1.2137,-1.2109,-1.2132,-1.2133,-1.2135,-1.2138,-1.2122,-1.2145,-1.2142,-1.2172,-1.2186,-1.2189,-1.2195,-1.2178,-1.2239,-1.2245,-1.2251,-1.227,-1.2277,-1.2185,-1.2185,-1.2185,-1.2184,0,-1.2174,-1.2188,-1.2207,-1.2209,-1.2215,-1.2236,-1.2221,-1.223,-1.2217,-1.2209,-1.2232,-1.2228,-1.2236,-1.2242,-1.223,-1.2271,-1.2262,-1.2243,-1.2214,-1.2262,-1.2279,-1.2287,-1.2189,-1.2188,-1.2187,-1.2187,0,0,-1.2255,-1.2247,-1.2255,-1.2255,-1.2253,-1.2263,-1.2283,-1.229,-1.2298,-1.2301,-1.2316,-1.2333,-1.2316,-1.2319,-1.2306,-1.2322,-1.2368,-1.2301,-1.2301,-1.2314,-1.2412,-1.2426,-1.2435,-1.2356,-1.2357,-1.2358,-1.2412,0,-1.2308,-1.234,-1.2325,-1.2359,-1.2372,-1.2346,-1.2363,-1.2364,-1.2357,-1.2368,-1.2361,-1.2373,-1.2349,-1.2351,-1.2366,-1.2359,-1.2387,-1.2355,-1.237,-1.2371,-1.2371,-1.2444,-1.2458,-1.2509,-1.2419,-1.242,-1.2421,0,-1.2373,-1.2379,-1.2414,-1.2409,-1.2414,-1.243,-1.2436,-1.2446,-1.2446,-1.244,-1.2445,-1.2429,-1.2448,-1.242,-1.2446,-1.2425,-1.243,-1.2428,-1.243,-1.243,-1.2398,-1.2446,-1.2525,-1.2533,-1.2432,-1.2431,-1.243,0,-1.2428,-1.2444,-1.2468,-1.2469,-1.2464,-1.2476,-1.2474,-1.2473,-1.2479,-1.2484,-1.2488,-1.2496,-1.25,-1.2507,-1.2494,-1.2474,-1.2522,-1.2493,-1.2518,-1.2518,-1.2528,-1.2528,-1.261,-1.2533,-1.2533,-1.2533,-1.2533,0,-1.2488,-1.2511,-1.2492,-1.2507,-1.2531,-1.2514,-1.2539,-1.2535,-1.2534,-1.2548,-1.2527,-1.254,-1.2522,-1.2534,-1.2524,-1.2547,-1.2549,-1.2545,-1.2542,-1.2547,-1.2547,-1.255,-1.2545,-1.2535,-1.2534,-1.2534,-1.2534,0,-1.2553,-1.2541,-1.2565,-1.2559,-1.2558,-1.2577,-1.2571,-1.2585,-1.2577,-1.2594,-1.2598,-1.2586,-1.2599,-1.2586,-1.2598,-1.2592,-1.2623,-1.2615,-1.2623,-1.262,-1.2646,-1.2644,-1.2732,-1.2742,-1.266,-1.2661,-1.2661,0,-1.2592,-1.2609,-1.2605,-1.2612,-1.2612,-1.2624,-1.263,-1.2614,-1.2621,-1.2623,-1.2636,-1.2647,-1.2655,-1.2676,-1.2669,-1.2678,-1.267,-1.27,-1.2671,-1.2676,-1.267,-1.2669,-1.2671,-1.2706,-1.2707,-1.2708,-1.2709,0,-1.2662,-1.2656,-1.2665,-1.2672,-1.268,-1.2685,-1.2688,-1.2696,-1.2679,-1.2689,-1.2701,-1.2707,-1.272,-1.2731,-1.2738,-1.2737,-1.272,-1.2718,-1.2724,-1.2729,-1.2732,-1.273,-1.2638,-1.2716,-1.2715,-1.2714,-1.2714,-1.2714,-1.2715,-1.2728,-1.2728,-1.2739,-1.274,-1.2744,-1.2756,-1.2751,-1.2761,-1.2769,-1.276,-1.2775,-1.2776,-1.2784,-1.2785,-1.2797,-1.2784,-1.2793,-1.2795,-1.2798,-1.2801,-1.2731,-1.2798,-1.2798,-1.2798,-1.2798,-1.2797,0,-1.2783,-1.2782,-1.2792,-1.2798,-1.2807,-1.2791,-1.2794,-1.2802,-1.2816,-1.2818,-1.2826,-1.2841,-1.2852,-1.2847,-1.2856,-1.2867,-1.286,-1.287,-1.2869,-1.2869,-1.2812,-1.2806,-1.2876,-1.2876,-1.2876,-1.2876,-1.2876,-1.2876,-1.282,-1.2842,-1.2836,-1.286,-1.2858,-1.2873,-1.2876,-1.288,-1.2882,-1.2899,-1.2908,-1.2904,-1.2903,-1.2913,-1.2922,-1.292,-1.2925,-1.2938,-1.2933,-1.288,-1.2873,-1.2865,-1.2859,-1.2939,-1.2939,-1.2988,-1.2989,-1.2989]},{"header":{"parameterUnit":"m.s-1","parameterCategory":1,"la1":30.2991,"la2":30.254,"lo1":-89.0895,"lo2":-89.0444,"dy":0.0017,"dx":0.0017,"nx":28,"ny":28,"refTime":"2024-12-16T09:00:00:Z","depth":0,"parameterNumber":3,"parameterNumberName":"V-component_of_WINDS"},"data":[0,0,0,0,0,0,0,0,0,0,0,0,0,0,0,0,0,0,0,0,0,0,0,0,0,0,0,0,0,0,0,0,0,0,0,0,0,0,0,0,0,0,0,0,0,0,0,0,0,0,0,0,0,0,0,0,0,0,-0.8088,-0.8089,0,-0.8111,-0.8111,-0.8112,-0.8095,-0.8094,-0.8093,-0.8093,-0.8117,-0.8118,-0.812,0,0,0,0,0,0,0,0,0,0,0,0,0,-0.803,-0.8031,-0.8088,-0.8089,-0.8089,-0.8111,-0.8111,-0.8112,-0.8095,-0.8094,-0.8093,-0.8092,-0.8117,-0.8118,-0.812,0,0,0,0,0,0,0,0,0,0,0,0,0,-0.8054,-0.8032,-0.8088,-0.8083,-0.8083,-0.8111,-0.8111,-0.8112,-0.8095,-0.8094,-0.8093,-0.8092,-0.8116,-0.8118,-0.812,-0.8155,0,0,-0.8126,-0.8127,0,0,0,0,0,0,0,0,-0.8053,-0.8057,-0.8084,-0.8084,-0.8083,-0.8099,-0.81,-0.8126,-0.8095,-0.8091,-0.8093,-0.8091,-0.8112,-0.8114,-0.8121,-0.8156,-0.8157,-0.8126,-0.8128,-0.8128,-0.8129,0,0,0,0,0,0,0,-0.8051,-0.8055,-0.8097,-0.8084,-0.8084,-0.808,-0.8082,-0.8105,-0.8107,-0.8091,-0.809,-0.8093,-0.8112,-0.8119,-0.8121,-0.8157,-0.8126,-0.8128,-0.8129,-0.813,-0.8219,-0.8221,0,0,0,0,0,0,-0.805,-0.8054,-0.8097,-0.8098,-0.8065,-0.8082,-0.8084,-0.8095,-0.8107,-0.8108,-0.8094,-0.8092,-0.8116,-0.8119,-0.8122,-0.8162,-0.8128,-0.813,-0.8131,-0.8218,-0.822,-0.8221,0,0,0,0,0,0,-0.8049,-0.8054,-0.8096,-0.8076,-0.8081,-0.8084,-0.8096,-0.8096,-0.8104,-0.8109,-0.8109,-0.8101,-0.8115,-0.8119,-0.8146,-0.8163,-0.8131,-0.8133,-0.8217,-0.8219,-0.822,-0.8244,0,0,0,0,0,0,-0.8047,-0.8054,-0.8067,-0.8076,-0.8082,-0.812,-0.8097,-0.8097,-0.8107,-0.8105,-0.8116,-0.8116,-0.8115,-0.8143,-0.8148,-0.8165,-0.8135,-0.8215,-0.8218,-0.822,-0.8242,-0.8246,-0.825,0,0,0,0,0,-0.8045,-0.8074,-0.8068,-0.8073,-0.8099,-0.8121,-0.8124,-0.8121,-0.8108,-0.8122,-0.8125,-0.8116,-0.816,-0.8146,-0.8152,-0.817,-0.8214,-0.8217,-0.822,-0.824,-0.8245,-0.825,0,0,0,0,0,0,-0.8068,-0.8075,-0.8069,-0.8101,-0.811,-0.8118,-0.8135,-0.8127,-0.8141,-0.8139,-0.8135,-0.8137,-0.8165,-0.817,-0.8154,-0.8203,-0.8185,-0.8189,-0.8199,-0.8204,-0.8208,-0.8207,-0.8136,0,0,0,0,0,-0.8076,-0.8093,-0.8098,-0.8126,-0.8131,-0.8132,-0.8141,-0.8138,-0.8148,-0.8152,-0.8157,-0.8167,-0.8183,-0.8194,-0.8209,-0.8242,-0.8243,-0.8257,-0.8261,-0.8264,-0.8268,-0.8284,-0.829,-0.823,-0.823,-0.823,0,0,-0.8094,-0.81,-0.8111,-0.8131,-0.8137,-0.8155,-0.8135,-0.8155,-0.8168,-0.8155,-0.818,-0.8184,-0.8195,-0.8225,-0.8238,-0.823,-0.8285,-0.8268,-0.8271,-0.8272,-0.8288,-0.8293,-0.8298,-0.8231,-0.8231,-0.8231,0,0,-0.8136,-0.8142,-0.8165,-0.8172,-0.8182,-0.8182,-0.8188,-0.8196,-0.8198,-0.8223,-0.8213,-0.8228,-0.8256,-0.8264,-0.8271,-0.8313,-0.8305,-0.8318,-0.8341,-0.8357,-0.8361,-0.8366,-0.838,-0.8385,-0.8321,-0.8321,-0.8322,0,-0.8157,-0.8183,-0.8178,-0.8198,-0.8206,-0.8194,-0.8217,-0.8224,-0.8239,-0.8245,-0.8235,-0.8268,-0.8275,-0.8305,-0.8315,-0.8322,-0.8328,-0.8317,-0.8361,-0.8365,-0.8369,-0.8382,-0.8388,-0.8323,-0.8323,-0.8323,-0.8322,0,-0.8208,-0.8225,-0.8243,-0.8256,-0.8266,-0.8288,-0.8286,-0.8297,-0.8292,-0.8293,-0.8318,-0.8325,-0.8341,-0.8348,-0.8344,-0.8377,-0.8372,-0.8361,-0.8344,-0.8376,-0.8389,-0.8394,-0.8325,-0.8324,-0.8324,-0.8324,0,0,-0.8265,-0.8274,-0.8281,-0.8286,-0.8295,-0.8309,-0.8329,-0.8344,-0.8352,-0.8363,-0.8379,-0.8402,-0.8392,-0.84,-0.8397,-0.8411,-0.8443,-0.8399,-0.8399,-0.8406,-0.8479,-0.8486,-0.8492,-0.8437,-0.8438,-0.8439,-0.8477,0,-0.8307,-0.8342,-0.8337,-0.837,-0.8386,-0.8374,-0.8391,-0.8399,-0.84,-0.8413,-0.8414,-0.843,-0.8416,-0.8421,-0.8434,-0.8436,-0.8457,-0.8433,-0.8452,-0.8453,-0.845,-0.8499,-0.8507,-0.8543,-0.8482,-0.8483,-0.8484,0,-0.836,-0.8371,-0.8406,-0.8411,-0.8417,-0.8433,-0.8445,-0.8458,-0.8465,-0.8465,-0.8473,-0.8467,-0.8487,-0.8468,-0.8495,-0.8479,-0.8486,-0.8488,-0.8489,-0.8491,-0.8471,-0.8502,-0.8555,-0.856,-0.8492,-0.8491,-0.849,0,-0.8398,-0.8421,-0.8444,-0.8449,-0.8456,-0.8467,-0.8471,-0.8477,-0.8485,-0.8496,-0.8501,-0.8514,-0.8521,-0.853,-0.8527,-0.8515,-0.8554,-0.8536,-0.8554,-0.8554,-0.8564,-0.8563,-0.8618,-0.8568,-0.8568,-0.8568,-0.8568,0,-0.8445,-0.8466,-0.8461,-0.8475,-0.8499,-0.8493,-0.8516,-0.8518,-0.8523,-0.8537,-0.8528,-0.8541,-0.8536,-0.855,-0.8547,-0.8569,-0.8572,-0.8572,-0.8571,-0.8573,-0.8573,-0.8578,-0.8575,-0.857,-0.8569,-0.8569,-0.8569,0,-0.8492,-0.8489,-0.8513,-0.8517,-0.8518,-0.8535,-0.8538,-0.8551,-0.855,-0.8568,-0.8572,-0.8572,-0.8586,-0.8584,-0.8601,-0.8599,-0.8626,-0.8622,-0.8623,-0.8622,-0.864,-0.8638,-0.8701,-0.8708,-0.8654,-0.8654,-0.8655,0,-0.8522,-0.8538,-0.8542,-0.8551,-0.8554,-0.8568,-0.8576,-0.857,-0.8579,-0.8588,-0.86,-0.8613,-0.8624,-0.8648,-0.8649,-0.8661,-0.8657,-0.8678,-0.8659,-0.8659,-0.8657,-0.8656,-0.8657,-0.8682,-0.8682,-0.8683,-0.8683,0,-0.8575,-0.8572,-0.8584,-0.8595,-0.8604,-0.8612,-0.862,-0.8627,-0.8622,-0.8632,-0.8646,-0.8654,-0.867,-0.8684,-0.8695,-0.8698,-0.869,-0.8689,-0.8694,-0.8696,-0.8695,-0.8695,-0.8633,-0.8688,-0.8687,-0.8687,-0.8687,-0.8687,-0.8614,-0.8627,-0.8632,-0.8644,-0.8649,-0.8656,-0.8667,-0.8668,-0.8679,-0.8691,-0.8687,-0.8703,-0.8709,-0.8722,-0.8727,-0.8739,-0.8731,-0.8739,-0.874,-0.8742,-0.8744,-0.8693,-0.8741,-0.8741,-0.8741,-0.8741,-0.8741,0,-0.8666,-0.8668,-0.868,-0.869,-0.8699,-0.869,-0.8697,-0.8706,-0.872,-0.8725,-0.8735,-0.8751,-0.8763,-0.8764,-0.8776,-0.8785,-0.8782,-0.8788,-0.8788,-0.8788,-0.8751,-0.8745,-0.8791,-0.8791,-0.8791,-0.8791,-0.8791,-0.8791,-0.8695,-0.8716,-0.8713,-0.8736,-0.8738,-0.8753,-0.8757,-0.8763,-0.8767,-0.8785,-0.8795,-0.8795,-0.8799,-0.881,-0.882,-0.882,-0.8825,-0.8833,-0.8832,-0.8796,-0.8791,-0.8787,-0.8781,-0.8834,-0.8834,-0.8868,-0.8869,-0.8869]}]]